Theta_e
348 345 337 333 332 333 335 335 340 343 352 351 356 354 351 351 340 347 349 352 349 351 348 340 334 332 332 338 339 339 339 337 337 337 339 338 337 336 336 338 336 334 328
346 348 346 340 336 335 337 339 340 345 347 349 347 356 355 352 345 338 341 347 356 355 352 348 338 332 332 332 338 336 337 338 338 338 338 338 337 337 336 331 331 334 337
356 354 353 347 340 342 340 339 342 343 344 346 346 348 351 348 346 344 337 341 347 352 353 352 343 335 328 329 331 336 337 337 338 338 338 337 338 339 338 337 336 334 335
356 359 358 354 352 351 344 339 337 340 341 342 343 344 346 347 346 346 346 342 338 342 348 351 344 341 334 329 328 328 329 335 335 336 334 335 338 339 338 338 338 339 339
356 358 359 359 357 357 353 347 345 342 338 338 340 342 344 345 346 345 346 346 346 341 341 343 343 337 337 337 335 330 327 329 338 337 337 337 335 338 338 338 338 338 338
355 356 358 358 359 359 358 355 354 352 345 340 338 339 341 342 343 344 345 347 347 348 345 341 345 347 342 340 338 335 335 328 325 332 337 336 334 333 338 338 339 339 338
355 355 357 358 358 357 357 357 357 355 350 343 339 337 337 338 340 342 344 350 351 350 349 348 347 344 340 343 343 341 341 341 331 327 329 332 332 333 335 340 338 338 338
353 355 356 358 359 359 357 358 357 356 352 347 344 341 338 337 338 339 341 347 353 353 352 352 349 346 346 345 346 345 345 346 344 337 336 337 336 336 337 339 338 337 337
356 354 355 356 358 359 358 358 358 357 355 351 348 344 340 338 339 342 345 350 355 352 347 350 352 349 349 350 348 348 350 348 346 344 342 341 338 337 339 338 336 336 337
345 346 356 356 358 358 359 358 358 356 353 357 355 351 348 346 348 350 354 354 348 342 349 347 348 352 350 354 353 352 351 351 351 348 344 342 336 333 335 339 334 337 337
339 345 347 352 356 361 361 361 360 359 358 355 353 353 353 351 352 354 356 358 354 354 355 356 356 356 357 357 357 356 354 354 353 352 350 347 341 337 335 339 337 333 336
345 344 345 347 354 359 363 362 361 362 362 358 360 356 357 359 360 359 360 361 361 358 359 359 358 357 357 356 355 356 357 357 355 354 352 349 343 340 334 338 334 334 336
351 349 345 350 353 355 363 363 363 364 363 363 361 363 362 361 364 362 361 360 360 361 360 358 355 354 357 356 354 353 353 356 358 353 348 348 342 339 339 338 333 335 333
346 354 350 353 356 358 359 364 364 365 364 363 364 363 363 365 361 362 361 360 360 360 359 357 355 354 352 353 354 354 353 354 355 352 350 347 342 339 338 336 335 334 334
361 357 355 357 361 363 362 367 366 365 366 365 362 364 363 362 362 361 360 360 358 356 353 352 352 349 348 350 352 353 354 351 351 348 345 342 339 339 339 337 333 334 333
353 359 361 358 363 364 365 362 365 366 365 363 363 362 362 362 362 361 360 359 355 355 356 356 356 356 355 355 355 354 350 348 345 343 339 337 340 336 335 333 334 333 328
357 360 360 360 361 363 364 363 360 360 361 361 359 360 361 361 360 359 359 359 359 356 354 353 353 353 351 349 348 345 346 342 340 337 338 337 336 334 333 334 332 326 323
357 360 359 358 360 363 364 362 360 358 359 359 359 359 359 359 359 360 359 356 351 347 345 341 340 340 341 341 340 338 333 333 334 337 337 335 334 333 333 331 327 324 324
363 361 361 361 364 364 363 362 360 360 358 355 357 359 357 354 352 352 351 348 344 340 337 338 338 337 337 335 335 335 334 334 333 333 334 331 333 332 329 327 326 324 323
359 358 358 357 357 358 357 355 353 351 347 345 344 345 348 347 344 343 340 336 335 335 338 337 337 336 335 334 335 334 332 332 333 333 332 333 332 329 327 327 326 324 323
354 355 355 354 352 350 349 347 346 346 345 344 344 342 342 340 338 335 334 335 335 337 337 336 334 333 333 332 332 332 332 332 332 332 334 332 330 328 327 326 326 324 322
347 348 349 348 346 346 345 344 345 343 341 340 339 338 334 335 335 337 336 333 333 334 334 335 334 333 332 334 332 333 333 334 334 334 332 330 329 328 327 327 324 321 318
345 345 344 343 342 341 340 340 340 339 337 336 334 333 333 334 334 333 332 334 335 334 335 335 334 333 334 334 335 334 334 334 333 332 331 329 328 327 326 323 321 319 315
339 339 339 340 339 337 336 337 337 337 337 336 336 336 336 336 336 336 335 335 335 334 334 334 334 333 333 332 331 331 331 330 329 329 328 328 327 326 324 320 318 315 313
335 334 334 335 335 335 335 334 334 335 335 335 333 335 337 336 335 335 336 334 333 332 332 331 332 332 331 331 330 330 330 328 329 327 327 326 325 322 321 318 316 313 312
332 331 330 330 329 330 331 331 331 332 332 330 330 330 332 331 332 332 331 330 329 328 327 327 326 326 326 326 324 325 324 324 324 324 324 323 321 320 319 316 314 312 311
Wind_Speed
46 44 44 46 45 42 42 40 36 36 34 28 18 24 26 22 20 27 28 24 24 24 23 20 19 17 17 17 18 17 16 14 15 12 10 13 14 14 16 17 18 19 17
49 46 45 45 45 45 43 42 40 36 33 31 33 24 28 26 21 27 30 29 25 26 26 26 27 24 23 21 21 19 18 17 16 15 12 15 18 17 16 21 22 14 16
45 47 45 45 48 48 46 43 43 40 39 38 36 35 35 33 29 26 29 31 30 31 32 31 29 31 28 27 28 25 22 22 24 25 23 24 22 20 18 17 17 18 19
45 44 46 47 47 46 47 45 44 44 43 41 41 40 39 39 36 33 31 31 33 33 35 36 35 33 32 31 30 32 31 29 28 31 29 27 21 22 21 20 18 17 16
45 46 47 45 45 44 44 44 44 43 44 44 43 43 41 40 40 38 35 34 34 36 36 39 41 40 37 34 32 32 33 35 33 31 29 27 24 21 23 22 21 19 20
44 47 46 45 44 44 45 46 45 44 42 42 44 45 44 44 43 41 39 38 39 39 39 39 41 42 41 38 37 35 35 36 39 39 34 33 29 23 20 20 22 19 17
42 44 47 46 47 46 45 45 45 46 45 43 43 44 46 48 46 43 41 41 40 41 42 42 41 43 45 46 44 41 41 40 38 37 37 37 29 20 17 18 19 22 24
43 41 42 46 47 46 46 46 45 45 47 48 46 46 47 50 49 47 44 43 44 45 47 47 46 46 46 45 44 44 43 44 43 41 39 32 26 24 24 24 28 32 34
37 44 43 43 45 47 48 47 45 44 46 49 50 50 51 52 52 51 46 44 46 49 54 54 55 53 52 48 45 46 46 46 44 46 41 35 31 29 36 33 37 33 31
27 32 42 44 44 49 49 48 46 46 46 45 48 50 51 53 52 50 47 45 49 57 55 58 58 59 56 53 50 49 49 52 46 46 45 45 45 38 43 41 37 33 28
25 27 29 41 46 43 44 44 44 44 44 45 45 44 44 45 45 46 46 46 50 48 48 46 46 50 50 50 49 50 54 49 50 51 48 40 42 41 38 41 36 26 30
29 28 27 31 37 41 41 43 42 41 41 41 40 40 41 42 41 41 40 42 45 49 42 32 31 35 37 39 46 52 51 51 55 54 50 41 42 39 37 35 28 26 26
23 29 30 28 31 34 35 41 38 38 38 37 38 35 36 35 32 34 35 36 39 41 47 43 37 28 30 35 38 38 39 52 57 48 43 39 38 30 29 30 27 25 21
27 28 29 31 31 30 33 33 34 34 36 35 30 31 30 28 27 31 33 30 32 34 38 37 38 44 41 42 43 39 38 43 52 51 47 40 29 25 26 26 25 24 28
22 27 28 29 28 29 30 28 30 31 31 30 28 23 23 26 26 25 29 28 23 24 22 26 31 33 37 39 40 41 40 37 45 43 37 31 23 23 28 22 24 28 26
25 24 24 25 25 27 31 34 32 30 31 27 25 25 26 25 26 23 28 27 21 20 23 26 27 30 31 36 37 39 31 35 37 33 20 12 19 22 23 24 30 24 19
21 19 22 23 24 27 28 30 34 29 26 27 24 22 25 19 17 16 16 18 21 22 23 26 28 29 28 27 24 25 26 25 14 10 15 14 23 23 23 28 26 20 18
18 21 20 21 21 22 25 22 15 25 23 23 24 22 22 24 25 25 24 23 18 18 18 17 13 11 10 9 9 8 11 14 9 15 17 15 17 15 25 29 28 26 22
18 11 18 20 20 19 19 18 15 15 18 16 17 20 21 19 17 16 17 17 16 15 13 8 5 5 7 7 10 13 11 10 12 13 18 19 18 25 28 28 23 23 21
22 22 21 17 18 19 18 16 16 14 8 8 8 10 12 11 12 12 12 13 12 10 7 6 8 9 12 12 11 11 9 11 16 16 11 20 26 29 30 24 23 23 23
22 21 21 20 17 17 16 14 12 11 10 8 10 10 10 8 11 11 10 6 6 8 7 10 9 4 5 5 5 8 10 13 19 17 22 29 25 27 25 22 23 23 24
16 18 15 15 16 16 15 13 11 9 9 8 11 11 11 11 8 10 11 8 8 10 11 9 8 6 8 10 9 8 10 11 16 23 22 25 26 26 24 24 24 20 19
19 23 23 21 18 20 16 14 11 12 10 8 4 9 11 8 7 4 7 10 8 7 7 6 8 4 6 9 10 9 12 15 16 20 21 21 21 24 22 22 22 23 19
26 24 22 21 20 20 14 14 12 11 8 10 9 7 7 6 4 5 4 4 5 7 9 9 8 8 8 9 9 12 13 11 11 20 20 19 21 21 22 21 21 20 20
28 29 29 29 26 21 20 17 12 13 12 11 10 7 9 7 6 6 6 5 7 6 7 7 8 6 7 10 10 14 15 15 17 19 21 20 21 20 22 20 21 21 20
27 25 21 18 15 14 15 14 12 10 12 13 14 16 14 10 8 6 7 6 6 6 6 7 9 11 11 11 11 15 15 16 18 20 20 22 20 19 20 21 19 20 21
Wind_Direction
226 227 226 227 230 227 228 229 224 220 217 210 222 239 240 249 232 218 224 228 233 232 241 236 237 229 216 220 240 227 235 232 239 233 254 243 248 251 242 249 261 269 256
227 229 231 229 229 231 228 228 231 229 229 226 219 226 240 247 246 232 230 226 225 244 244 242 241 241 235 224 228 241 234 232 241 238 240 248 250 260 268 262 262 262 273
221 226 229 233 233 232 234 231 232 236 234 235 236 231 235 246 249 246 241 238 231 232 247 248 246 245 246 237 231 233 236 232 230 238 235 240 253 260 263 268 273 266 239
215 221 227 230 232 232 237 239 238 236 239 239 239 242 240 244 249 250 248 244 245 242 242 252 256 250 252 251 243 240 243 242 240 240 243 241 239 252 261 265 269 264 265
215 218 228 234 231 232 234 238 241 241 239 241 242 243 245 245 246 247 247 247 249 250 247 247 253 258 257 256 254 251 246 240 240 245 244 247 236 238 243 253 263 267 273
217 221 223 232 236 232 234 236 236 239 241 240 241 243 244 244 246 248 248 245 247 249 252 252 251 256 261 260 259 256 253 248 242 240 244 247 250 240 242 254 263 251 256
220 223 222 226 231 236 238 237 236 236 239 240 240 242 244 246 248 250 249 247 248 249 254 256 255 255 258 259 260 263 262 257 250 245 241 245 249 246 239 241 239 250 257
218 224 224 223 227 233 238 238 237 236 237 239 240 242 244 246 248 250 251 246 248 251 254 254 258 259 257 258 259 261 260 255 250 246 244 240 232 225 234 240 250 258 264
224 224 226 224 226 229 235 238 238 237 238 240 242 243 245 249 251 253 252 245 241 249 253 253 253 256 259 257 255 258 259 257 256 247 238 240 233 250 265 249 253 258 253
235 233 227 225 227 230 233 237 238 239 240 238 242 246 249 253 255 255 249 245 247 250 248 253 253 255 258 256 253 254 253 256 254 244 233 237 247 264 262 246 260 256 249
252 245 235 230 225 229 229 233 236 238 238 241 244 248 251 254 254 253 250 243 249 248 251 250 254 254 250 254 256 252 257 254 253 251 245 247 240 252 262 247 244 256 247
241 248 245 237 232 224 228 229 233 234 234 237 242 246 247 250 253 254 253 250 247 244 246 251 259 263 267 263 256 254 257 252 247 244 240 244 230 257 258 251 242 247 244
248 242 248 245 237 228 226 228 225 227 230 234 233 237 247 240 249 255 257 256 252 251 251 256 258 256 264 262 262 261 260 250 245 236 230 242 243 256 257 246 234 243 239
237 240 241 238 234 232 220 229 224 224 228 227 231 235 237 243 246 243 254 256 253 255 255 256 262 268 259 254 260 262 262 255 251 253 247 249 239 250 241 224 239 228 213
229 230 233 228 228 223 213 214 222 221 223 228 230 228 236 237 243 244 242 251 260 263 256 256 264 265 264 266 265 265 266 255 249 236 229 221 228 241 235 225 215 212 205
224 222 222 218 217 209 214 215 213 214 221 224 223 223 232 226 236 235 229 243 244 244 248 262 266 271 273 272 270 268 274 244 231 224 255 241 217 203 197 205 205 200 204
223 216 215 213 211 209 218 222 223 215 218 218 223 221 223 230 231 230 234 246 257 262 262 268 268 268 271 272 275 267 255 233 241 280 239 225 209 202 199 199 186 189 181
209 203 210 213 203 204 204 218 229 221 217 216 218 226 236 243 249 254 260 270 259 257 261 264 264 263 264 263 255 258 277 271 244 226 226 213 200 232 196 182 188 187 193
199 191 191 183 173 177 174 180 171 179 197 211 212 222 235 245 247 246 247 248 255 258 261 262 243 257 249 246 277 277 271 243 219 217 221 213 202 170 177 191 190 191 196
176 172 163 147 154 161 165 159 159 163 161 156 160 204 200 208 220 231 241 246 238 216 190 225 228 252 262 261 261 260 243 196 193 202 212 203 178 183 188 188 196 197 197
187 171 168 145 134 141 146 159 158 153 155 156 198 221 223 213 247 231 218 188 182 191 222 245 276 264 221 208 189 205 221 233 222 219 173 172 185 188 195 198 205 206 209
139 131 134 135 139 136 143 145 143 144 155 183 223 230 226 206 192 190 190 179 179 195 211 222 212 219 257 247 234 226 196 167 160 163 171 179 186 192 199 205 196 207 205
137 128 128 127 123 127 125 131 120 143 130 119 120 131 131 125 142 131 154 165 176 194 188 214 226 217 168 151 147 164 174 174 179 179 189 197 196 197 205 203 203 204 207
111 118 118 123 127 120 116 126 114 94 99 108 109 123 138 129 130 162 155 182 184 201 204 191 174 166 181 182 180 192 193 206 200 188 183 206 201 204 205 210 207 207 210
112 110 109 110 109 114 112 106 126 121 128 109 77 128 115 116 112 129 155 143 132 141 160 176 173 173 184 183 184 200 206 201 208 200 205 206 207 213 212 219 213 211 211
105 94 92 100 99 105 109 107 95 115 123 112 113 121 135 121 133 159 164 186 181 169 170 168 179 180 190 195 220 218 218 210 211 206 211 207 206 210 217 216 219 217 215